• In Uzbekistan
  • List of Countries
  • For 7 days
  • Water Temperature
  • Satellite Maps
  • Weather Map
  • Weather Widgets
  • user-avatar
    Login

    Hourly Weather Whitehorse

    Today, 19 September, Wednesday

    Time Temperature Precipitation Wind Pressure Humidity
    00:00 +3°C° 0 mm 1 mps 691 mmHg 76%
    01:00 +3°C° 0 mm 1 mps 691 mmHg 77%
    02:00 +3°C° 0 mm 1 mps 691 mmHg 79%
    03:00 +2°C° 0 mm 1 mps 691 mmHg 81%
    04:00 +2°C° 0 mm 1 mps 691 mmHg 82%
    05:00 +2°C° 0 mm 1 mps 691 mmHg 84%
    06:00 +2°C° 0 mm 1 mps 691 mmHg 85%
    07:00 +4°C° 0 mm 1 mps 691 mmHg 76%
    08:00 +6°C° 0 mm 1 mps 691 mmHg 66%
    09:00 +8°C° 0 mm 1 mps 692 mmHg 57%
    10:00 +8°C° 0 mm 2 mps 691 mmHg 53%
    11:00 +9°C° 0 mm 2 mps 691 mmHg 49%
    12:00 +10°C° 0 mm 2 mps 691 mmHg 44%
    13:00 +10°C° 0 mm 2 mps 691 mmHg 44%
    14:00 +10°C° 0 mm 2 mps 691 mmHg 44%
    15:00 +10°C° 0 mm 2 mps 690 mmHg 44%
    16:00 +8°C° 0 mm 2 mps 690 mmHg 51%
    17:00 +7°C° 0 mm 1 mps 690 mmHg 58%
    18:00 +6°C° 0 mm 1 mps 690 mmHg 64%
    19:00 +5°C° 0 mm 1 mps 690 mmHg 68%
    20:00 +4°C° 0 mm 1 mps 690 mmHg 71%
    21:00 +3°C° 0 mm 1 mps 690 mmHg 74%
    22:00 +3°C° 0 mm 1 mps 690 mmHg 74%
    23:00 +3°C° 0 mm 1 mps 690 mmHg 75%

    Tomorrow, 20 September, Thursday

    Time Temperature Precipitation Wind Pressure Humidity
    00:00 +2°C° 0 mm 1 mps 690 mmHg 76%
    01:00 +2°C° 0 mm 1 mps 690 mmHg 76%
    02:00 +2°C° 0 mm 1 mps 690 mmHg 77%
    03:00 +1°C° 0 mm 0 mps 690 mmHg 78%
    04:00 +1°C° 0 mm 0 mps 690 mmHg 78%
    05:00 0°C° 0 mm 0 mps 690 mmHg 78%
    06:00 0°C° 0 mm 0 mps 691 mmHg 77%
    07:00 +2°C° 0 mm 0 mps 691 mmHg 68%
    08:00 +4°C° 0 mm 0 mps 691 mmHg 59%
    09:00 +7°C° 0 mm 1 mps 691 mmHg 50%
    10:00 +8°C° 0 mm 1 mps 691 mmHg 46%
    11:00 +10°C° 0 mm 1 mps 691 mmHg 42%
    12:00 +11°C° 0 mm 1 mps 691 mmHg 37%
    13:00 +11°C° 0 mm 1 mps 691 mmHg 36%
    14:00 +11°C° 0 mm 1 mps 690 mmHg 35%
    15:00 +11°C° 0 mm 1 mps 690 mmHg 34%
    16:00 +8°C° 0 mm 0 mps 690 mmHg 40%
    17:00 +6°C° 0 mm 0 mps 689 mmHg 46%
    18:00 +4°C° 0 mm 0 mps 689 mmHg 52%
    19:00 +3°C° 0 mm 0 mps 689 mmHg 54%
    20:00 +2°C° 0 mm 0 mps 689 mmHg 55%
    21:00 +1°C° 0 mm 0 mps 690 mmHg 57%
    22:00 +1°C° 0 mm 0 mps 689 mmHg 57%
    23:00 +1°C° 0 mm 0 mps 689 mmHg 58%

    Day after tomorrow, 21 September, Friday

    Time Temperature Precipitation Wind Pressure Humidity
    00:00 +1°C° 0 mm 0 mps 689 mmHg 58%
    01:00 +1°C° 0 mm 0 mps 689 mmHg 58%
    02:00 +1°C° 0 mm 0 mps 689 mmHg 59%
    03:00 0°C° 0 mm 0 mps 689 mmHg 59%
    04:00 +1°C° 0 mm 1 mps 689 mmHg 60%
    05:00 +1°C° 0 mm 1 mps 689 mmHg 60%
    06:00 +1°C° 0 mm 1 mps 689 mmHg 60%
    07:00 +3°C° 0 mm 1 mps 689 mmHg 53%
    08:00 +6°C° 0 mm 1 mps 689 mmHg 46%
    09:00 +8°C° 0 mm 1 mps 689 mmHg 39%
    10:00 +9°C° 0 mm 1 mps 688 mmHg 37%
    11:00 +10°C° 0 mm 1 mps 688 mmHg 35%
    12:00 +11°C° 0 mm 1 mps 688 mmHg 32%
    13:00 +11°C° 0 mm 1 mps 687 mmHg 32%
    14:00 +12°C° 0 mm 1 mps 687 mmHg 32%
    15:00 +12°C° 0 mm 1 mps 687 mmHg 32%
    16:00 +10°C° 0 mm 1 mps 686 mmHg 39%
    17:00 +7°C° 0 mm 1 mps 686 mmHg 46%
    18:00 +5°C° 0 mm 1 mps 685 mmHg 53%
    19:00 +5°C° 0 mm 1 mps 685 mmHg 55%
    20:00 +4°C° 0 mm 1 mps 685 mmHg 57%
    21:00 +3°C° 0 mm 1 mps 685 mmHg 59%
    22:00 +3°C° 0 mm 1 mps 685 mmHg 61%
    23:00 +3°C° 0 mm 1 mps 685 mmHg 63%

    22 September, Saturday

    Time Temperature Precipitation Wind Pressure Humidity
    00:00 +3°C° 0 mm 1 mps 685 mmHg 65%
    01:00 +2°C° 0 mm 1 mps 685 mmHg 67%
    02:00 +2°C° 0 mm 1 mps 685 mmHg 69%
    03:00 +2°C° 0 mm 1 mps 684 mmHg 71%
    04:00 +2°C° 0 mm 1 mps 684 mmHg 72%
    05:00 +2°C° 0 mm 1 mps 684 mmHg 74%
    06:00 +1°C° 0 mm 1 mps 684 mmHg 75%
    07:00 +2°C° 0 mm 2 mps 684 mmHg 67%
    08:00 +4°C° 0 mm 2 mps 684 mmHg 58%
    09:00 +6°C° 0 mm 2 mps 684 mmHg 50%
    10:00 +8°C° 0 mm 2 mps 683 mmHg 47%
    11:00 +9°C° 0 mm 3 mps 683 mmHg 43%
    12:00 +10°C° 0 mm 3 mps 683 mmHg 40%
    13:00 +10°C° 0 mm 3 mps 683 mmHg 41%
    14:00 +10°C° 0 mm 3 mps 682 mmHg 42%
    15:00 +10°C° 0 mm 3 mps 682 mmHg 44%
    16:00 +9°C° 0 mm 3 mps 682 mmHg 51%
    17:00 +7°C° 0 mm 3 mps 682 mmHg 59%
    18:00 +5°C° 0 mm 2 mps 682 mmHg 67%
    19:00 +5°C° 0 mm 2 mps 682 mmHg 71%
    20:00 +4°C° 0 mm 2 mps 682 mmHg 75%
    21:00 +4°C° 0 mm 2 mps 682 mmHg 80%
    22:00 +4°C° 0.1 mm 2 mps 682 mmHg 82%
    23:00 +4°C° 0.1 mm 2 mps 682 mmHg 84%

    23 September, Sunday

    Time Temperature Precipitation Wind Pressure Humidity
    00:00 +3°C° 0.1 mm 2 mps 682 mmHg 87%
    01:00 +3°C° 0.1 mm 2 mps 682 mmHg 88%
    02:00 +3°C° 0.1 mm 2 mps 682 mmHg 89%
    03:00 +3°C° 0.1 mm 2 mps 682 mmHg 91%
    04:00 +3°C° 0 mm 2 mps 682 mmHg 91%
    05:00 +2°C° 0 mm 2 mps 682 mmHg 92%
    06:00 +2°C° 0 mm 2 mps 682 mmHg 93%
    07:00 +4°C° 0 mm 2 mps 682 mmHg 88%
    08:00 +5°C° 0 mm 2 mps 682 mmHg 83%
    09:00 +6°C° 0 mm 2 mps 683 mmHg 77%
    10:00 +8°C° 0 mm 2 mps 683 mmHg 72%
    11:00 +9°C° 0 mm 2 mps 683 mmHg 68%
    12:00 +10°C° 0 mm 3 mps 683 mmHg 63%
    13:00 +10°C° 0.2 mm 3 mps 683 mmHg 63%
    14:00 +11°C° 0.2 mm 3 mps 683 mmHg 63%
    15:00 +11°C° 0.2 mm 3 mps 683 mmHg 63%
    16:00 +9°C° 0.1 mm 2 mps 683 mmHg 69%
    17:00 +8°C° 0.1 mm 2 mps 683 mmHg 75%
    18:00 +7°C° 0.1 mm 2 mps 683 mmHg 81%
    19:00 +6°C° 0 mm 2 mps 683 mmHg 84%
    20:00 +5°C° 0 mm 2 mps 684 mmHg 87%
    21:00 +6°C° 0 mm 1 mps 684 mmHg 89%
    22:00 +6°C° 0.1 mm 1 mps 684 mmHg 91%
    23:00 +5°C° 0.1 mm 1 mps 685 mmHg 92%

    24 September, Monday

    Time Temperature Precipitation Wind Pressure Humidity
    00:00 +5°C° 0.1 mm 1 mps 685 mmHg 93%
    01:00 +5°C° 0.2 mm 1 mps 686 mmHg 93%
    02:00 +5°C° 0.2 mm 1 mps 686 mmHg 93%
    03:00 +6°C° 0.2 mm 1 mps 687 mmHg 94%
    04:00 +4°C° 0.3 mm 0 mps 687 mmHg 94%
    05:00 +4°C° 0.3 mm 0 mps 687 mmHg 94%
    06:00 +4°C° 0.3 mm 0 mps 688 mmHg 95%
    07:00 +5°C° 0.1 mm 0 mps 688 mmHg 91%
    08:00 +8°C° 0.1 mm 1 mps 689 mmHg 86%
    09:00 +9°C° 0.1 mm 1 mps 689 mmHg 82%
    10:00 +10°C° 0 mm 1 mps 690 mmHg 76%
    11:00 +11°C° 0 mm 1 mps 690 mmHg 71%
    12:00 +13°C° 0 mm 1 mps 690 mmHg 65%
    13:00 +13°C° 0.1 mm 1 mps 690 mmHg 64%
    14:00 +13°C° 0.1 mm 1 mps 690 mmHg 63%
    15:00 +13°C° 0.1 mm 2 mps 690 mmHg 62%
    16:00 +12°C° 0 mm 2 mps 690 mmHg 68%
    17:00 +9°C° 0 mm 2 mps 690 mmHg 74%
    18:00 +8°C° 0 mm 2 mps 690 mmHg 80%
    19:00 +7°C° 0 mm 2 mps 691 mmHg 83%
    20:00 +6°C° 0 mm 2 mps 691 mmHg 86%
    21:00 +6°C° 0 mm 2 mps 691 mmHg 89%
    22:00 +5°C° 0 mm 2 mps 691 mmHg 90%
    23:00 +4°C° 0 mm 3 mps 691 mmHg 91%
    Show more